Weather observations for the past three days for
Daniel K Inouye International Airport
Metric (Imperial)
Date Time (hst) Wind (kph) Vis. (km) Weather Sky Cond. Temperature (ºC) Relative Humidity Wind Chill (°C) Heat Index (°C) Pressure Precipitation (cm)
Air Dwpt 6 hour altimeter (cm) sea level (mb) 1 hr 3 hr 6 hr
Max. Min.
04 20:53 NE 22 16.09 Partly Cloudy FEW025 SCT037 26.1 20 69% 27 75.95 1012.4
04 19:53 NE 19 16.09 A Few Clouds FEW025 26.1 18.9 30.6 26.1 65% 27 75.9 1011.7
04 18:53 NE 22 G 41 16.09 Partly Cloudy FEW025 SCT035 26.7 18.3 60% 28 75.84 1011.2
04 17:53 E 33 G 46 16.09 A Few Clouds and Breezy FEW028 FEW040 27.8 17.8 55% 29 75.84 1011.0
04 16:53 NE 28 16.09 A Few Clouds FEW030 FEW040 28.9 18.3 53% 30 75.82 1010.8
04 15:53 NE 30 G 46 16.09 Partly Cloudy FEW028 SCT040 29.4 17.2 48% 30 75.84 1011.0
04 14:53 NE 24 G 41 16.09 A Few Clouds FEW030 FEW042 29.4 17.2 48% 30 75.84 1010.9
04 13:53 NE 30 G 52 16.09 A Few Clouds FEW025 FEW042 30.6 17.8 31.1 26.7 46% 31 75.87 1011.5
04 12:53 E 30 G 52 16.09 A Few Clouds FEW025 FEW045 30 18.3 49% 31 75.92 1012.2
04 11:53 E 30 G 54 16.09 A Few Clouds FEW025 FEW050 31.1 19.4 50% 33 75.95 1012.6
04 10:53 NE 33 G 52 16.09 Partly Cloudy and Breezy FEW025 SCT040 29.4 19.4 55% 31 75.97 1012.7
04 09:53 NE 33 G 48 16.09 Partly Cloudy and Breezy FEW025 SCT037 28.3 19.4 59% 30 75.95 1012.6
04 08:53 NE 30 G 46 16.09 Partly Cloudy FEW026 SCT043 27.2 18.9 61% 28 75.95 1012.5
04 07:53 NE 22 G 31 16.09 Partly Cloudy FEW025 SCT041 SCT060 26.7 19.4 26.7 23.9 64% 28 75.95 1012.3
04 06:53 NE 11 16.09 Partly Cloudy FEW025 SCT037 24.4 19.4 74% 25 75.92 1012.1
04 05:53 NE 20 16.09 Partly Cloudy FEW020 SCT035 SCT045 23.9 20.6 82% 24 75.92 1012.0
04 04:53 NE 22 16.09 Partly Cloudy FEW025 SCT040 SCT050 25 20 74% 26 75.9 1011.8
04 03:53 E 19 16.09 Mostly Cloudy FEW025 SCT035 BKN045 25 20 74% 26 75.9 1011.8
04 02:53 E 20 16.09 Mostly Cloudy FEW020 BKN035 BKN045 25 20 74% 26 75.92 1012.1
04 00:53 E 30 G 48 16.09 Mostly Cloudy FEW025 BKN040 26.1 20 69% 27 75.97 1012.9
03 23:53 NE 9 16.09 A Few Clouds FEW025 FEW040 25.6 19.4 69% 27 76 1013.2
03 22:53 NE 13 16.09 Partly Cloudy FEW025 SCT040 26.1 18.9 65% 27 76.05 1013.7
03 21:53 E 11 16.09 Partly Cloudy FEW025 SCT035 SCT043 26.7 18.9 62% 28 76.05 1013.8
03 20:53 NE 20 16.09 Partly Cloudy FEW025 FEW038 SCT050 26.7 18.9 62% 28 76.02 1013.5
03 19:53 NE 28 G 39 16.09 Mostly Cloudy FEW025 FEW036 BKN050 26.7 18.9 30.6 26.7 62% 28 76 1013.3
03 18:53 Vrbl 11 G 30 16.09 Partly Cloudy FEW025 FEW033 SCT043 26.7 19.4 64% 28 75.97 1012.7
03 17:53 E 33 G 54 16.09 Mostly Cloudy and Breezy FEW024 SCT031 BKN045 27.2 20 65% 29 75.92 1012.0
03 16:53 NE 28 G 48 16.09 Mostly Cloudy FEW024 SCT032 BKN045 28.9 20.6 61% 31 75.9 1011.8
03 15:53 NE 35 G 50 16.09 Mostly Cloudy and Breezy FEW024 SCT031 BKN042 28.3 20 61% 30 75.92 1012.0
03 14:53 E 30 G 43 16.09 Partly Cloudy FEW023 SCT033 SCT045 29.4 19.4 55% 31 75.9 1011.8
03 13:53 E 30 G 56 16.09 Mostly Cloudy FEW023 SCT034 BKN045 30.6 20.6 31.1 26.1 55% 33 75.95 1012.3
03 12:53 NE 24 16.09 Partly Cloudy FEW025 SCT035 30 20.6 57% 32 76 1013.0
03 11:53 NE 26 G 43 16.09 A Few Clouds FEW025 FEW038 30 20.6 57% 32 76.05 1013.8
03 10:53 NE 20 G 39 16.09 Partly Cloudy FEW025 SCT041 28.3 21.1 65% 31 76.1 1014.5
03 09:53 NE 24 G 44 16.09 Partly Cloudy FEW025 SCT048 28.3 20 61% 30 76.1 1014.6
03 08:53 NE 20 16.09 Mostly Cloudy FEW025 SCT040 BKN060 27.8 21.1 67% 30 76.12 1014.9
03 07:53 NE 13 16.09 Light Rain FEW024 SCT036 BKN060 26.1 20.6 26.7 25.6 72% 28 76.1 1014.6
03 06:53 NE 22 G 43 16.09 Partly Cloudy FEW025 SCT041 26.1 20 69% 27 76.07 1014.2
03 05:53 NE 19 16.09 Partly Cloudy FEW025 FEW035 SCT180 26.1 20 69% 27 76.07 1014.1
03 04:53 NE 15 G 30 16.09 Partly Cloudy FEW025 SCT035 26.1 20 69% 27 76.05 1013.8
03 03:53 NE 28 G 43 16.09 A Few Clouds FEW025 FEW045 26.1 20 69% 27 76.02 1013.6
03 02:53 E 22 16.09 Partly Cloudy FEW025 SCT045 26.1 20 69% 27 76.02 1013.6
03 01:53 E 19 16.09 Partly Cloudy FEW025 FEW035 SCT045 25.6 20.6 27.2 25.6 74% 27 76.05 1013.8
03 00:53 E 24 16.09 Light Rain FEW025 FEW035 SCT050 26.1 20.6 72% 28 76.07 1014.3
02 23:53 E 20 G 33 16.09 Partly Cloudy FEW025 SCT040 26.7 20.6 69% 28 76.12 1014.7
02 22:53 NE 24 G 41 16.09 Partly Cloudy FEW025 SCT035 26.7 20.6 69% 28 76.15 1015.2
02 21:53 E 28 G 43 16.09 Partly Cloudy FEW025 FEW034 SCT041 27.2 20.6 67% 29 76.15 1015.1
02 20:53 E 24 G 39 16.09 Partly Cloudy FEW025 FEW032 SCT042 27.2 20 65% 29 76.1 1014.6
02 19:53 E 22 G 31 16.09 Partly Cloudy FEW024 FEW036 SCT046 27.2 20 31.7 27.2 65% 29 76.07 1014.0
02 18:53 NE 26 G 43 16.09 A Few Clouds FEW025 FEW039 27.8 20 63% 29 76.02 1013.6
02 17:53 E 26 G 54 16.09 A Few Clouds FEW025 FEW038 28.3 19.4 59% 30 76 1013.2
02 16:53 E 30 G 44 16.09 Partly Cloudy FEW025 SCT040 29.4 20 57% 31 75.97 1012.8
02 15:53 NE 20 G 48 16.09 A Few Clouds FEW025 FEW039 29.4 20 57% 31 75.97 1012.7
02 14:53 E 35 G 52 16.09 A Few Clouds and Breezy FEW025 FEW045 31.1 19.4 50% 33 75.97 1012.7
02 13:53 E 28 G 54 16.09 A Few Clouds FEW025 FEW040 30.6 20.6 31.1 24.4 55% 33 76 1013.0 0.38
02 12:53 E 30 G 44 16.09 Mostly Cloudy FEW023 SCT040 BKN080 30.6 21.1 57% 33 76.02 1013.5
02 11:53 NE 24 G 44 16.09 Partly Cloudy FEW023 SCT047 SCT070 30 22.2 63% 33 76.07 1014.0
02 10:53 NE 26 G 41 16.09 Mostly Cloudy FEW025 SCT044 BKN055 29.4 22.8 68% 33 76.1 1014.5 0.38
02 09:53 NE 11 16.09 Mostly Cloudy FEW022 SCT033 BKN050 26.7 23.3 82% 29 76.12 1014.8 0.08
02 08:53 E 6 4.83 Rain Fog/Mist FEW022 BKN038 OVC055 25 23.3 90% 26 76.12 1014.9 0.3
02 07:53 Calm 4.83 Rain Fog/Mist FEW013 BKN027 OVC034 25 23.3 26.7 24.4 90% 26 76.12 1014.6 0.05
02 06:53 N 13 11.27 Light Rain FEW013 BKN027 24.4 23.3 94% 24 76.07 1014.0 0.05
02 05:53 NW 9 16.09 Overcast FEW010 BKN025 OVC040 25 23.3 90% 26 76.02 1013.5
02 04:53 Calm 16.09 Overcast SCT025 OVC035 25.6 22.8 85% 27 76 1013.2
02 03:53 NE 7 16.09 Overcast SCT025 BKN040 OVC060 25.6 22.8 85% 27 76 1013.3
02 02:53 N 9 16.09 Mostly Cloudy BKN025 BKN035 26.7 21.7 74% 29 76 1013.2
02 01:53 NE 11 16.09 Mostly Cloudy SCT025 BKN035 26.1 21.7 27.2 26.1 77% 28 76.05 1013.7
02 00:53 NE 11 16.09 Mostly Cloudy FEW025 SCT035 BKN045 26.1 21.7 77% 28 76.07 1014.3
01 23:53 NE 24 16.09 Light Rain FEW020 SCT040 26.7 21.7 74% 29 76.1 1014.5
01 22:53 E 20 16.09 Partly Cloudy FEW025 SCT045 26.7 21.1 71% 28 76.15 1015.1
01 21:53 NE 24 16.09 Partly Cloudy FEW020 SCT036 27.2 21.1 69% 29 76.15 1015.3
Date Time (hst) Wind (kph) Vis. (km) Weather Sky Cond. Air Dwpt Max. Min. Relative Humidity Wind Chill (°C) Heat Index (°C) altimeter (cm) sea level (mb) 1 hr 3 hr 6 hr
6 hour
Temperature (ºC) Pressure Precipitation (cm)